03-04-2023, 00:00:01,     32,    0.0,    0.4,   0.00,   0.00, 1026.2,   89.4, -999.0
03-04-2023, 00:00:11,     32,    0.0,    0.5,   0.00,   0.00, 1026.2,   89.5, -999.0
03-04-2023, 00:00:21,     32,    0.0,    0.5,   0.00,   0.00, 1026.2,   89.8, -999.0
03-04-2023, 00:00:31,     32,    0.0,    0.5,   0.00,   0.00, 1026.2,   89.8, -999.0
03-04-2023, 00:00:41,     33,    0.0,    0.6,   0.00,   0.00, 1026.2,   89.9, -999.0
03-04-2023, 00:00:50,     32,    0.0,    0.5,   0.00,   0.00, 1026.2,   89.8, -999.0
03-04-2023, 00:01:01,     32,    0.0,    0.6,   0.00,   0.00, 1026.2,   89.8, -999.0
03-04-2023, 00:01:11,     32,    0.0,    0.4,   0.00,   0.00, 1026.2,   89.6, -999.0
03-04-2023, 00:01:21,     33,    0.0,    0.5,   0.00,   0.00, 1026.2,   89.6, -999.0
03-04-2023, 00:01:30,     32,    0.0,    0.5,   0.00,   0.00, 1026.2,   89.6, -999.0
03-04-2023, 00:01:41,     33,    0.0,    0.4,   0.00,   0.00, 1026.2,   89.5, -999.0
03-04-2023, 00:01:51,     32,    0.0,    0.5,   0.00,   0.00, 1026.2,   89.5, -999.0
03-04-2023, 00:02:00,     33,    0.0,    0.5,   0.00,   0.00, 1026.2,   89.4, -999.0
03-04-2023, 00:02:10,     32,    0.0,    0.5,   0.00,   0.00, 1026.2,   89.5, -999.0
03-04-2023, 00:02:21,     33,    0.0,    0.5,   0.00,   0.00, 1026.2,   89.5, -999.0
03-04-2023, 00:02:31,     32,    0.0,    0.5,   0.00,   0.00, 1026.2,   89.6, -999.0
03-04-2023, 00:02:40,     32,    0.0,    0.5,   0.00,   0.00, 1026.2,   89.6, -999.0
03-04-2023, 00:02:50,     32,    0.0,    0.4,   0.00,   0.00, 1026.2,   89.6, -999.0
03-04-2023, 00:03:01,     32,    0.0,    0.4,   0.00,   0.00, 1026.2,   89.6, -999.0
03-04-2023, 00:03:10,     33,    0.0,    0.4,   0.00,   0.00, 1026.2,   89.5, -999.0
03-04-2023, 00:03:20,     33,    0.0,    0.5,   0.00,   0.00, 1026.2,   89.5, -999.0
03-04-2023, 00:03:30,     32,    0.0,    0.4,   0.00,   0.00, 1026.2,   89.5, -999.0
03-04-2023, 00:03:41,     32,    0.0,    0.4,   0.00,   0.00, 1026.2,   89.6, -999.0
03-04-2023, 00:03:50,     32,    0.0,    0.5,   0.00,   0.00, 1026.2,   89.5, -999.0
03-04-2023, 00:04:00,     33,    0.0,    0.4,   0.00,   0.00, 1026.2,   89.4, -999.0
03-04-2023, 00:04:10,     33,    0.0,    0.4,   0.00,   0.00, 1026.2,   89.3, -999.0
03-04-2023, 00:04:20,     33,    0.0,    0.4,   0.00,   0.00, 1026.2,   89.4, -999.0
03-04-2023, 00:04:30,     32,    0.0,    0.4,   0.00,   0.00, 1026.2,   89.6, -999.0
03-04-2023, 00:04:40,     32,    0.0,    0.4,   0.00,   0.00, 1026.2,   89.7, -999.0
03-04-2023, 00:04:50,     33,    0.0,    0.4,   0.00,   0.00, 1026.2,   89.8, -999.0
03-04-2023, 00:05:00,     33,    0.0,    0.5,   0.00,   0.00, 1026.2,   90.0, -999.0
03-04-2023, 00:05:10,     33,    0.0,    0.4,   0.00,   0.00, 1026.2,   90.1, -999.0
03-04-2023, 00:05:20,     32,    0.0,    0.4,   0.00,   0.00, 1026.2,   90.0, -999.0
03-04-2023, 00:05:30,     32,    0.0,    0.4,   0.00,   0.00, 1026.2,   89.9, -999.0
03-04-2023, 00:05:40,     32,    0.0,    0.4,   0.00,   0.00, 1026.2,   89.9, -999.0
03-04-2023, 00:05:50,     32,    0.0,    0.3,   0.00,   0.00, 1026.2,   90.0, -999.0
03-04-2023, 00:06:00,     32,    0.0,    0.4,   0.00,   0.00, 1026.2,   90.0, -999.0
03-04-2023, 00:06:10,     33,    0.0,    0.4,   0.00,   0.00, 1026.2,   89.9, -999.0
03-04-2023, 00:06:20,     33,    0.0,    0.4,   0.00,   0.00, 1026.2,   89.9, -999.0
03-04-2023, 00:06:30,     32,    0.0,    0.4,   0.00,   0.00, 1026.2,   90.0, -999.0
03-04-2023, 00:06:40,     33,    0.0,    0.3,   0.00,   0.00, 1026.2,   90.1, -999.0
03-04-2023, 00:06:50,     33,    0.0,    0.3,   0.00,   0.00, 1026.2,   90.2, -999.0
03-04-2023, 00:07:00,     33,    0.0,    0.3,   0.00,   0.00, 1026.2,   90.2, -999.0
03-04-2023, 00:07:10,     33,    0.0,    0.4,   0.00,   0.00, 1026.2,   90.3, -999.0
03-04-2023, 00:07:20,     32,    0.0,    0.4,   0.00,   0.00, 1026.2,   90.3, -999.0
03-04-2023, 00:07:30,     32,    0.0,    0.4,   0.00,   0.00, 1026.2,   90.4, -999.0
03-04-2023, 00:07:40,     32,    0.0,    0.4,   0.00,   0.00, 1026.2,   90.4, -999.0
03-04-2023, 00:07:50,     33,    0.0,    0.3,   0.00,   0.00, 1026.2,   90.5, -999.0
03-04-2023, 00:08:00,     32,    0.0,    0.3,   0.00,   0.00, 1026.2,   90.5, -999.0
03-04-2023, 00:08:10,     32,    0.0,    0.3,   0.00,   0.00, 1026.2,   90.6, -999.0
03-04-2023, 00:08:20,     33,    0.0,    0.3,   0.00,   0.00, 1026.2,   90.7, -999.0
03-04-2023, 00:08:30,     32,    0.0,    0.3,   0.00,   0.00, 1026.2,   90.6, -999.0
03-04-2023, 00:08:40,     32,    0.0,    0.4,   0.00,   0.00, 1026.2,   90.5, -999.0
03-04-2023, 00:08:50,     32,    0.0,    0.4,   0.00,   0.00, 1026.2,   90.5, -999.0
03-04-2023, 00:09:00,     32,    0.0,    0.4,   0.00,   0.00, 1026.2,   90.6, -999.0
03-04-2023, 00:09:10,     32,    0.0,    0.3,   0.00,   0.00, 1026.2,   90.6, -999.0
03-04-2023, 00:09:20,     32,    0.0,    0.3,   0.00,   0.00, 1026.2,   90.6, -999.0
03-04-2023, 00:09:30,     32,    0.0,    0.3,   0.00,   0.00, 1026.2,   90.7, -999.0
03-04-2023, 00:09:40,     32,    0.0,    0.3,   0.00,   0.00, 1026.2,   90.7, -999.0
03-04-2023, 00:09:50,     33,    0.0,    0.2,   0.00,   0.00, 1026.2,   90.5, -999.0
03-04-2023, 00:10:00,     33,    0.0,    0.3,   0.00,   0.00, 1026.2,   90.5, -999.0
03-04-2023, 00:10:09,     33,    0.0,    0.2,   0.00,   0.00, 1026.2,   90.4, -999.0
03-04-2023, 00:10:20,     33,    0.0,    0.2,   0.00,   0.00, 1026.2,   90.4, -999.0
03-04-2023, 00:10:30,     33,    0.0,    0.2,   0.00,   0.00, 1026.2,   90.3, -999.0
03-04-2023, 00:10:39,     32,    0.0,    0.1,   0.00,   0.00, 1026.2,   90.4, -999.0
03-04-2023, 00:10:50,     33,    0.0,    0.3,   0.00,   0.00, 1026.2,   90.5, -999.0
03-04-2023, 00:11:00,     32,    0.0,    0.1,   0.00,   0.00, 1026.2,   90.4, -999.0
03-04-2023, 00:11:10,     32,    0.0,    0.2,   0.00,   0.00, 1026.2,   90.5, -999.0
03-04-2023, 00:11:19,     32,    0.0,    0.1,   0.00,   0.00, 1026.2,   90.4, -999.0
03-04-2023, 00:11:29,     32,    0.0,    0.1,   0.00,   0.00, 1026.2,   90.3, -999.0
03-04-2023, 00:11:40,     32,    0.0,    0.1,   0.00,   0.00, 1026.2,   90.3, -999.0
03-04-2023, 00:11:49,     32,    0.0,    0.1,   0.00,   0.00, 1026.2,   90.3, -999.0
03-04-2023, 00:11:59,     33,    0.0,    0.0,   0.00,   0.00, 1026.2,   90.5, -999.0
03-04-2023, 00:12:10,     32,    0.0,    0.0,   0.00,   0.00, 1026.2,   90.5, -999.0
03-04-2023, 00:12:20,     32,    0.0,    0.1,   0.00,   0.00, 1026.2,   90.5, -999.0
03-04-2023, 00:12:29,     33,    0.0,    0.1,   0.00,   0.00, 1026.2,   90.5, -999.0
03-04-2023, 00:12:39,     32,    0.0,    0.0,   0.00,   0.00, 1026.2,   90.6, -999.0
03-04-2023, 00:12:50,     33,    0.0,   -0.1,   0.00,   0.00, 1026.2,   90.7, -999.0
03-04-2023, 00:12:59,     32,    0.0,    0.1,   0.00,   0.00, 1026.2,   91.0, -999.0
03-04-2023, 00:13:09,     32,    0.0,    0.1,   0.00,   0.00, 1026.2,   91.4, -999.0
03-04-2023, 00:13:19,     32,    0.0,    0.2,   0.00,   0.00, 1026.2,   91.7, -999.0
03-04-2023, 00:13:30,     33,    0.0,    0.2,   0.00,   0.00, 1026.2,   92.0, -999.0
03-04-2023, 00:13:39,     32,    0.0,    0.2,   0.00,   0.00, 1026.2,   92.3, -999.0
03-04-2023, 00:13:49,     32,    0.0,    0.2,   0.00,   0.00, 1026.2,   92.3, -999.0
03-04-2023, 00:13:59,     32,    0.0,    0.2,   0.00,   0.00, 1026.2,   92.3, -999.0
03-04-2023, 00:14:09,     33,    0.0,    0.3,   0.00,   0.00, 1026.2,   92.4, -999.0
03-04-2023, 00:14:19,     32,    0.0,    0.3,   0.00,   0.00, 1026.2,   92.5, -999.0
03-04-2023, 00:14:29,     32,    0.0,    0.2,   0.00,   0.00, 1026.2,   92.5, -999.0
03-04-2023, 00:14:39,     32,    0.0,    0.2,   0.00,   0.00, 1026.2,   92.5, -999.0
03-04-2023, 00:14:49,     32,    0.0,    0.1,   0.00,   0.00, 1026.2,   92.5, -999.0
03-04-2023, 00:14:59,     32,    0.0,    0.2,   0.00,   0.00, 1026.2,   92.4, -999.0
03-04-2023, 00:15:09,     33,    0.0,    0.3,   0.00,   0.00, 1026.2,   92.3, -999.0
03-04-2023, 00:15:19,     32,    0.0,    0.3,   0.00,   0.00, 1026.2,   92.3, -999.0
03-04-2023, 00:15:29,     32,    0.0,    0.3,   0.00,   0.00, 1026.2,   92.5, -999.0
03-04-2023, 00:15:39,     32,    0.0,    0.2,   0.00,   0.00, 1026.2,   92.5, -999.0
03-04-2023, 00:15:49,     32,    0.0,    0.2,   0.00,   0.00, 1026.2,   92.6, -999.0
03-04-2023, 00:15:59,     33,    0.0,    0.2,   0.00,   0.00, 1026.2,   92.6, -999.0
03-04-2023, 00:16:09,     32,    0.0,    0.3,   0.00,   0.00, 1026.2,   92.6, -999.0
03-04-2023, 00:16:19,     32,    0.0,    0.3,   0.00,   0.00, 1026.2,   92.8, -999.0
03-04-2023, 00:16:29,     32,    0.0,    0.3,   0.00,   0.00, 1026.2,   92.9, -999.0
03-04-2023, 00:16:39,     32,    0.0,    0.3,   0.00,   0.00, 1026.2,   92.9, -999.0
03-04-2023, 00:16:49,     32,    0.0,    0.3,   0.00,   0.00, 1026.2,   92.9, -999.0
03-04-2023, 00:16:59,     33,    0.0,    0.3,   0.00,   0.00, 1026.2,   92.8, -999.0
03-04-2023, 00:17:09,     32,    0.0,    0.2,   0.00,   0.00, 1026.2,   92.7, -999.0
03-04-2023, 00:17:19,     32,    0.0,    0.2,   0.00,   0.00, 1026.2,   92.5, -999.0
03-04-2023, 00:17:29,     32,    0.0,    0.3,   0.00,   0.00, 1026.2,   92.5, -999.0
03-04-2023, 00:17:39,     32,    0.0,    0.3,   0.00,   0.00, 1026.2,   92.3, -999.0
03-04-2023, 00:17:49,     32,    0.0,    0.1,   0.00,   0.00, 1026.2,   92.2, -999.0
03-04-2023, 00:17:59,     33,    0.0,    0.2,   0.00,   0.00, 1026.2,   92.2, -999.0
03-04-2023, 00:18:09,     32,    0.0,    0.2,   0.00,   0.00, 1026.2,   92.2, -999.0
03-04-2023, 00:18:19,     32,    0.0,    0.1,   0.00,   0.00, 1026.2,   92.1, -999.0
03-04-2023, 00:18:29,     32,    0.0,    0.2,   0.00,   0.00, 1026.2,   92.1, -999.0
03-04-2023, 00:18:39,     32,    0.0,    0.2,   0.00,   0.00, 1026.2,   92.0, -999.0
03-04-2023, 00:18:49,     34,    0.0,    0.2,   0.00,   0.00, 1026.2,   92.0, -999.0
03-04-2023, 00:18:59,     32,    0.0,    0.1,   0.00,   0.00, 1026.2,   92.2, -999.0
03-04-2023, 00:19:09,     32,    0.0,    0.1,   0.00,   0.00, 1026.2,   92.5, -999.0
03-04-2023, 00:19:19,     32,    0.0,    0.2,   0.00,   0.00, 1026.2,   92.8, -999.0
03-04-2023, 00:19:29,     32,    0.0,    0.3,   0.00,   0.00, 1026.2,   93.1, -999.0
03-04-2023, 00:19:39,     32,    0.0,    0.2,   0.00,   0.00, 1026.2,   93.4, -999.0
03-04-2023, 00:19:49,     33,    0.0,    0.3,   0.00,   0.00, 1026.2,   93.5, -999.0
03-04-2023, 00:19:59,     33,    0.0,    0.3,   0.00,   0.00, 1026.2,   93.6, -999.0
03-04-2023, 00:20:09,     32,    0.0,    0.3,   0.00,   0.00, 1026.2,   93.8, -999.0
03-04-2023, 00:20:19,     32,    0.0,    0.3,   0.00,   0.00, 1026.2,   93.8, -999.0
03-04-2023, 00:20:29,     32,    0.0,    0.4,   0.00,   0.00, 1026.2,   93.9, -999.0
03-04-2023, 00:20:38,     32,    0.0,    0.3,   0.00,   0.00, 1026.2,   93.9, -999.0
03-04-2023, 00:20:49,     32,    0.0,    0.3,   0.00,   0.00, 1026.2,   93.6, -999.0
03-04-2023, 00:20:59,     32,    0.0,    0.3,   0.00,   0.00, 1026.2,   93.5, -999.0
03-04-2023, 00:21:08,     32,    0.0,    0.4,   0.00,   0.00, 1026.2,   93.5, -999.0
03-04-2023, 00:21:18,     32,    0.0,    0.3,   0.00,   0.00, 1026.2,   93.5, -999.0
03-04-2023, 00:21:29,     32,    0.0,    0.4,   0.00,   0.00, 1026.2,   93.5, -999.0
03-04-2023, 00:21:39,     32,    0.0,    0.3,   0.00,   0.00, 1026.2,   93.6, -999.0
03-04-2023, 00:21:48,     32,    0.0,    0.4,   0.00,   0.00, 1026.2,   93.7, -999.0
03-04-2023, 00:21:58,     33,    0.0,    0.4,   0.00,   0.00, 1026.2,   93.7, -999.0
03-04-2023, 00:22:09,     33,    0.0,    0.3,   0.00,   0.00, 1026.2,   93.6, -999.0
03-04-2023, 00:22:18,     32,    0.0,    0.2,   0.00,   0.00, 1026.2,   93.5, -999.0
03-04-2023, 00:22:28,     32,    0.0,    0.3,   0.00,   0.00, 1026.2,   93.3, -999.0
03-04-2023, 00:22:38,     32,    0.0,    0.3,   0.00,   0.00, 1026.2,   93.2, -999.0
03-04-2023, 00:22:49,     32,    0.0,    0.3,   0.00,   0.00, 1026.2,   93.2, -999.0
03-04-2023, 00:22:58,     32,    0.0,    0.3,   0.00,   0.00, 1026.2,   93.2, -999.0
03-04-2023, 00:23:08,     32,    0.0,    0.3,   0.00,   0.00, 1026.2,   93.1, -999.0
03-04-2023, 00:23:18,     33,    0.0,    0.3,   0.00,   0.00, 1026.2,   93.1, -999.0
03-04-2023, 00:23:28,     32,    0.0,    0.3,   0.00,   0.00, 1026.2,   93.1, -999.0
03-04-2023, 00:23:38,     32,    0.0,    0.3,   0.00,   0.00, 1026.2,   93.3, -999.0
03-04-2023, 00:23:48,     32,    0.0,    0.2,   0.00,   0.00, 1026.2,   93.3, -999.0
03-04-2023, 00:23:58,     32,    0.0,    0.3,   0.00,   0.00, 1026.2,   93.2, -999.0
03-04-2023, 00:24:08,     32,    0.0,    0.3,   0.00,   0.00, 1026.2,   93.2, -999.0
03-04-2023, 00:24:18,     32,    0.0,    0.3,   0.00,   0.00, 1026.2,   93.2, -999.0
03-04-2023, 00:24:28,     32,    0.0,    0.4,   0.00,   0.00, 1026.2,   93.2, -999.0
03-04-2023, 00:24:38,     32,    0.0,    0.3,   0.00,   0.00, 1026.2,   93.1, -999.0
03-04-2023, 00:24:48,     32,    0.0,    0.3,   0.00,   0.00, 1026.2,   93.0, -999.0
03-04-2023, 00:24:58,     32,    0.0,    0.3,   0.00,   0.00, 1026.2,   93.0, -999.0
03-04-2023, 00:25:08,     33,    0.0,    0.3,   0.00,   0.00, 1026.2,   92.9, -999.0
03-04-2023, 00:25:18,     33,    0.0,    0.3,   0.00,   0.00, 1026.2,   92.7, -999.0
03-04-2023, 00:25:28,     33,    0.0,    0.2,   0.00,   0.00, 1026.2,   92.5, -999.0
03-04-2023, 00:25:38,     33,    0.0,    0.3,   0.00,   0.00, 1026.2,   92.5, -999.0
03-04-2023, 00:25:48,     32,    0.0,    0.2,   0.00,   0.00, 1026.2,   92.5, -999.0
03-04-2023, 00:25:58,     32,    0.0,    0.3,   0.00,   0.00, 1026.2,   92.7, -999.0
03-04-2023, 00:26:08,     32,    0.0,    0.2,   0.00,   0.00, 1026.2,   92.7, -999.0
03-04-2023, 00:26:18,     33,    0.0,    0.3,   0.00,   0.00, 1026.2,   92.7, -999.0
03-04-2023, 00:26:28,     33,    0.0,    0.4,   0.00,   0.00, 1026.2,   92.9, -999.0
03-04-2023, 00:26:38,     32,    0.0,    0.3,   0.00,   0.00, 1026.2,   92.9, -999.0
03-04-2023, 00:26:48,     32,    0.0,    0.2,   0.00,   0.00, 1026.2,   92.8, -999.0
03-04-2023, 00:26:58,     32,    0.0,    0.2,   0.00,   0.00, 1026.2,   92.6, -999.0
03-04-2023, 00:27:08,     33,    0.0,    0.2,   0.00,   0.00, 1026.2,   92.5, -999.0
03-04-2023, 00:27:18,     32,    0.0,    0.3,   0.00,   0.00, 1026.2,   92.4, -999.0
03-04-2023, 00:27:28,     32,    0.0,    0.1,   0.00,   0.00, 1026.2,   92.3, -999.0
03-04-2023, 00:27:38,     32,    0.0,    0.2,   0.00,   0.00, 1026.2,   92.5, -999.0
03-04-2023, 00:27:48,     33,    0.0,    0.3,   0.00,   0.00, 1026.2,   92.6, -999.0
03-04-2023, 00:27:58,     32,    0.0,    0.2,   0.00,   0.00, 1026.2,   92.7, -999.0
03-04-2023, 00:28:08,     32,    0.0,    0.2,   0.00,   0.00, 1026.2,   92.7, -999.0
03-04-2023, 00:28:18,     32,    0.0,    0.2,   0.00,   0.00, 1026.2,   92.6, -999.0
03-04-2023, 00:28:28,     32,    0.0,    0.3,   0.00,   0.00, 1026.2,   92.6, -999.0
03-04-2023, 00:28:38,     33,    0.0,    0.3,   0.00,   0.00, 1026.2,   92.7, -999.0
03-04-2023, 00:28:48,     32,    0.0,    0.2,   0.00,   0.00, 1026.2,   92.7, -999.0
03-04-2023, 00:28:58,     32,    0.0,    0.2,   0.00,   0.00, 1026.2,   92.6, -999.0
03-04-2023, 00:29:08,     32,    0.0,    0.1,   0.00,   0.00, 1026.2,   92.5, -999.0
03-04-2023, 00:29:17,     33,    0.0,    0.1,   0.00,   0.00, 1026.2,   92.3, -999.0
03-04-2023, 00:29:28,     32,    0.0,    0.1,   0.00,   0.00, 1026.2,   92.4, -999.0
03-04-2023, 00:29:38,     32,    0.0,    0.1,   0.00,   0.00, 1026.2,   92.4, -999.0
03-04-2023, 00:29:48,     32,    0.0,    0.2,   0.00,   0.00, 1026.2,   92.5, -999.0
03-04-2023, 00:29:57,     32,    0.0,    0.2,   0.00,   0.00, 1026.2,   92.6, -999.0
03-04-2023, 00:30:08,     32,    0.0,    0.1,   0.00,   0.00, 1026.2,   92.7, -999.0
03-04-2023, 00:30:18,     32,    0.0,    0.2,   0.00,   0.00, 1026.2,   92.7, -999.0
03-04-2023, 00:30:27,     32,    0.0,    0.2,   0.00,   0.00, 1026.2,   92.7, -999.0
03-04-2023, 00:30:38,     32,    0.0,    0.1,   0.00,   0.00, 1026.2,   92.6, -999.0
03-04-2023, 00:30:48,     32,    0.0,    0.2,   0.00,   0.00, 1026.2,   92.7, -999.0
03-04-2023, 00:30:57,     32,    0.0,    0.2,   0.00,   0.00, 1026.2,   92.8, -999.0
03-04-2023, 00:31:07,     32,    0.0,    0.3,   0.00,   0.00, 1026.2,   92.8, -999.0
03-04-2023, 00:31:18,     32,    0.0,    0.1,   0.00,   0.00, 1026.2,   92.8, -999.0
03-04-2023, 00:31:28,     33,    0.0,    0.2,   0.00,   0.00, 1026.2,   93.0, -999.0
03-04-2023, 00:31:37,     32,    0.0,    0.2,   0.00,   0.00, 1026.2,   93.1, -999.0
03-04-2023, 00:31:47,     32,    0.0,    0.2,   0.00,   0.00, 1026.2,   93.2, -999.0
03-04-2023, 00:31:58,     32,    0.0,    0.2,   0.00,   0.00, 1026.2,   93.2, -999.0
03-04-2023, 00:32:07,     32,    0.0,    0.2,   0.00,   0.00, 1026.2,   93.0, -999.0
03-04-2023, 00:32:17,     32,    0.0,    0.2,   0.00,   0.00, 1026.2,   93.0, -999.0
03-04-2023, 00:32:27,     32,    0.0,    0.1,   0.00,   0.00, 1026.2,   93.0, -999.0
03-04-2023, 00:32:38,     32,    0.0,    0.1,   0.00,   0.00, 1026.2,   93.1, -999.0
03-04-2023, 00:32:47,     32,    0.0,    0.2,   0.00,   0.00, 1026.2,   93.0, -999.0
03-04-2023, 00:32:57,     32,    0.0,    0.2,   0.00,   0.00, 1026.2,   93.0, -999.0
03-04-2023, 00:33:07,     32,    0.0,    0.1,   0.00,   0.00, 1026.2,   92.8, -999.0
03-04-2023, 00:33:17,     32,    0.0,    0.2,   0.00,   0.00, 1026.2,   92.8, -999.0
03-04-2023, 00:33:27,     33,    0.0,    0.2,   0.00,   0.00, 1026.2,   92.7, -999.0
03-04-2023, 00:33:37,     32,    0.0,    0.1,   0.00,   0.00, 1026.2,   92.7, -999.0
03-04-2023, 00:33:47,     32,    0.0,    0.2,   0.00,   0.00, 1026.2,   92.8, -999.0
03-04-2023, 00:33:57,     32,    0.0,    0.1,   0.00,   0.00, 1026.2,   92.9, -999.0
03-04-2023, 00:34:07,     32,    0.0,    0.2,   0.00,   0.00, 1026.1,   92.9, -999.0
03-04-2023, 00:34:17,     32,    0.0,    0.2,   0.00,   0.00, 1026.2,   92.9, -999.0
03-04-2023, 00:34:27,     32,    0.0,    0.1,   0.00,   0.00, 1026.1,   93.1, -999.0
03-04-2023, 00:34:37,     32,    0.0,    0.1,   0.00,   0.00, 1026.1,   93.1, -999.0
03-04-2023, 00:34:47,     32,    0.0,    0.2,   0.00,   0.00, 1026.1,   93.1, -999.0
03-04-2023, 00:34:57,     32,    0.0,    0.2,   0.00,   0.00, 1026.1,   93.1, -999.0
03-04-2023, 00:35:07,     32,    0.0,    0.2,   0.00,   0.00, 1026.1,   93.1, -999.0
03-04-2023, 00:35:17,     32,    0.0,    0.3,   0.00,   0.00, 1026.1,   93.4, -999.0
03-04-2023, 00:35:27,     32,    0.0,    0.2,   0.00,   0.00, 1026.1,   93.5, -999.0
03-04-2023, 00:35:37,     32,    0.0,    0.2,   0.00,   0.00, 1026.1,   93.4, -999.0
03-04-2023, 00:35:47,     32,    0.0,    0.2,   0.00,   0.00, 1026.1,   93.3, -999.0
03-04-2023, 00:35:57,     32,    0.0,    0.1,   0.00,   0.00, 1026.1,   93.2, -999.0
03-04-2023, 00:36:07,     32,    0.0,    0.2,   0.00,   0.00, 1026.1,   93.3, -999.0
03-04-2023, 00:36:17,     32,    0.0,    0.3,   0.00,   0.00, 1026.1,   93.3, -999.0
03-04-2023, 00:36:27,     32,    0.0,    0.2,   0.00,   0.00, 1026.1,   93.3, -999.0
03-04-2023, 00:36:37,     32,    0.0,    0.2,   0.00,   0.00, 1026.1,   93.1, -999.0
03-04-2023, 00:36:47,     32,    0.0,    0.1,   0.00,   0.00, 1026.1,   93.1, -999.0
03-04-2023, 00:36:57,     33,    0.0,    0.2,   0.00,   0.00, 1026.1,   93.0, -999.0
03-04-2023, 00:37:07,     32,    0.0,    0.3,   0.00,   0.00, 1026.1,   92.9, -999.0
03-04-2023, 00:37:17,     32,    0.0,    0.2,   0.00,   0.00, 1026.1,   92.9, -999.0
03-04-2023, 00:37:27,     32,    0.0,    0.3,   0.00,   0.00, 1026.1,   92.7, -999.0
03-04-2023, 00:37:37,     33,    0.0,    0.1,   0.00,   0.00, 1026.1,   92.6, -999.0
03-04-2023, 00:37:47,     32,    0.0,    0.2,   0.00,   0.00, 1026.1,   92.7, -999.0
03-04-2023, 00:37:57,     32,    0.0,    0.2,   0.00,   0.00, 1026.1,   92.7, -999.0
03-04-2023, 00:38:07,     32,    0.0,    0.2,   0.00,   0.00, 1026.1,   92.6, -999.0
03-04-2023, 00:38:17,     32,    0.0,    0.2,   0.00,   0.00, 1026.1,   92.6, -999.0
03-04-2023, 00:38:27,     32,    0.0,    0.1,   0.00,   0.00, 1026.1,   92.7, -999.0
03-04-2023, 00:38:37,     32,    0.0,    0.2,   0.00,   0.00, 1026.1,   92.6, -999.0
03-04-2023, 00:38:47,     32,    0.0,    0.2,   0.00,   0.00, 1026.1,   92.7, -999.0
03-04-2023, 00:38:57,     32,    0.0,    0.2,   0.00,   0.00, 1026.1,   92.8, -999.0
03-04-2023, 00:39:07,     32,    0.0,    0.2,   0.00,   0.00, 1026.1,   92.7, -999.0
03-04-2023, 00:39:17,     29,    0.0,    0.1,   0.00,   0.00, 1026.1,   92.6, -999.0
03-04-2023, 00:39:27,     32,    0.0,    0.2,   0.00,   0.00, 1026.1,   92.5, -999.0
03-04-2023, 00:39:37,     32,    0.0,    0.1,   0.00,   0.00, 1026.1,   92.7, -999.0
03-04-2023, 00:39:47,     32,    0.0,    0.3,   0.00,   0.00, 1026.1,   92.7, -999.0
03-04-2023, 00:39:57,     32,    0.0,    0.2,   0.00,   0.00, 1026.2,   92.9, -999.0
03-04-2023, 00:40:06,     32,    0.0,    0.2,   0.00,   0.00, 1026.1,   92.9, -999.0
03-04-2023, 00:40:17,     32,    0.0,    0.1,   0.00,   0.00, 1026.1,   92.9, -999.0
03-04-2023, 00:40:27,     32,    0.0,    0.1,   0.00,   0.00, 1026.2,   92.7, -999.0
03-04-2023, 00:40:36,     33,    0.0,    0.0,   0.00,   0.00, 1026.1,   92.5, -999.0
03-04-2023, 00:40:46,     32,    0.0,    0.1,   0.00,   0.00, 1026.1,   92.6, -999.0
03-04-2023, 00:40:57,     33,    0.0,    0.0,   0.00,   0.00, 1026.1,   92.5, -999.0
03-04-2023, 00:41:07,     32,    0.0,    0.1,   0.00,   0.00, 1026.1,   92.5, -999.0
03-04-2023, 00:41:16,     33,    0.0,    0.2,   0.00,   0.00, 1026.1,   92.6, -999.0
03-04-2023, 00:41:26,     34,    0.0,    0.1,   0.00,   0.00, 1026.1,   92.6, -999.0
03-04-2023, 00:41:37,     32,    0.0,    0.1,   0.00,   0.00, 1026.1,   92.7, -999.0
03-04-2023, 00:41:46,     32,    0.0,    0.1,   0.00,   0.00, 1026.1,   92.7, -999.0
03-04-2023, 00:41:56,     32,    0.0,    0.1,   0.00,   0.00, 1026.1,   92.7, -999.0
03-04-2023, 00:42:06,     32,    0.0,    0.1,   0.00,   0.00, 1026.2,   92.7, -999.0
03-04-2023, 00:42:17,     32,    0.0,    0.0,   0.00,   0.00, 1026.1,   92.7, -999.0
03-04-2023, 00:42:26,     32,    0.0,    0.0,   0.00,   0.00, 1026.1,   92.7, -999.0
03-04-2023, 00:42:36,     32,    0.0,    0.1,   0.00,   0.00, 1026.1,   92.7, -999.0
03-04-2023, 00:42:46,     32,    0.0,    0.1,   0.00,   0.00, 1026.1,   92.9, -999.0
03-04-2023, 00:42:56,     32,    0.0,    0.0,   0.00,   0.00, 1026.1,   92.9, -999.0
03-04-2023, 00:43:06,     32,    0.0,    0.1,   0.00,   0.00, 1026.1,   93.0, -999.0
03-04-2023, 00:43:16,     33,    0.0,    0.1,   0.00,   0.00, 1026.1,   92.8, -999.0
03-04-2023, 00:43:26,     32,    0.0,    0.0,   0.00,   0.00, 1026.1,   92.6, -999.0
03-04-2023, 00:43:36,     32,    0.0,    0.1,   0.00,   0.00, 1026.1,   92.7, -999.0
03-04-2023, 00:43:46,     32,    0.0,    0.1,   0.00,   0.00, 1026.2,   93.3, -999.0
03-04-2023, 00:43:56,     32,    0.0,    0.1,   0.00,   0.00, 1026.1,   93.4, -999.0
03-04-2023, 00:44:06,     32,    0.0,    0.2,   0.00,   0.00, 1026.1,   93.3, -999.0
03-04-2023, 00:44:16,     32,    0.0,    0.2,   0.00,   0.00, 1026.1,   92.9, -999.0
03-04-2023, 00:44:26,     32,    0.0,    0.2,   0.00,   0.00, 1026.1,   92.7, -999.0
03-04-2023, 00:44:36,     32,    0.0,    0.1,   0.00,   0.00, 1026.2,   92.8, -999.0
03-04-2023, 00:44:46,     32,    0.0,    0.1,   0.00,   0.00, 1026.2,   92.7, -999.0
03-04-2023, 00:44:56,     30,    0.0,    0.2,   0.00,   0.00, 1026.1,   92.7, -999.0
03-04-2023, 00:45:06,     32,    0.0,    0.1,   0.00,   0.00, 1026.1,   92.6, -999.0
03-04-2023, 00:45:16,     33,    0.0,    0.0,   0.00,   0.00, 1026.1,   92.7, -999.0
03-04-2023, 00:45:26,     33,    0.0,    0.1,   0.00,   0.00, 1026.1,   92.7, -999.0
03-04-2023, 00:45:36,     32,    0.0,    0.2,   0.00,   0.00, 1026.1,   92.8, -999.0
03-04-2023, 00:45:46,     32,    0.0,    0.1,   0.00,   0.00, 1026.1,   92.7, -999.0
03-04-2023, 00:45:56,     32,    0.0,    0.0,   0.00,   0.00, 1026.1,   92.7, -999.0
03-04-2023, 00:46:06,     32,    0.0,    0.0,   0.00,   0.00, 1026.1,   92.6, -999.0
03-04-2023, 00:46:16,     32,    0.0,    0.1,   0.00,   0.00, 1026.1,   92.6, -999.0
03-04-2023, 00:46:26,     33,    0.0,    0.1,   0.00,   0.00, 1026.1,   92.6, -999.0
03-04-2023, 00:46:36,     32,    0.0,    0.1,   0.00,   0.00, 1026.1,   92.6, -999.0
03-04-2023, 00:46:46,     32,    0.0,    0.1,   0.00,   0.00, 1026.1,   92.7, -999.0